Location: Godiavel Galaoual
(15.2485°N, 12.6604°W)
Time: 00:01:58
(UTC+00:00)

Explorer 7 - Pass Details

Date: 16 June 2021
Orbit: 484 x 676 km, 50.3° (Epoch: 29 July)

Event Time Altitude Azimuth Distance (km) Brightness Sun altitude
Rises 08:03:14 0° 300° (WNW) 2,670 10.0 22.2°
Reaches altitude 10° 08:05:57 10° 282° (WNW) 1,744 9.0 22.8°
Maximum altitude 08:08:49 19° 235° (SW) 1,233 8.2 23.4°
Drops below altitude 10° 08:11:36 10° 188° (S) 1,685 9.1 24.1°
Sets 08:14:11 0° 170° (S) 2,546 10.1 24.7°
